Погода в Кагуле

Погода в Кагуле : погода сейчас, прогноз погоды и архив. Всё, что Вы хотите узнать о погоде в Кагуле!

Поиск расширенной информации на нашем сайте:

Полезная информация: Лучшие умные часы сравнение умные часы.

Другие новости

Новости СМИ2

Главная страница сайта

Новости сайта

02.10.2013

Напоминаем, что на нашем новом сайте вы можете получить высокодетализированные прогнозы погоды по пунктам России, СНГ и мира (включающие важные для авиации метеовеличины, такие как направление и скорость ветра, видимость, явления погоды, количество и форма облачности, нижняя и верхняя граница облачности), а также ознакомиться с разнообразными материалами по авиационной метеорологии и подборкой полезных ссылок на эту тему.

Сайт Метеоцентр.Азия посвящён разработке технологий оптимизации авиаметеорологического обслуживания, включая проектирование и перспективное создание нескольких автоматизированных авиаметеорологических систем:
- система выпуска высокодетальных прогностических карт явлений погоды для нижнего воздушного пространства по России и ближнему зарубежью;
- система верификации прогнозов TAF (выпускаемых синоптиками официальных АМСГ РФ и ближнего зарубежья) и AUTOTAF (выпускаемых сайтом Метеоцентр.Азия) - выявление ошибок, онлайн-сопоставление с фактической погодой METAR, автоматическое внесение коррективов в прогнозы при резком отклонении фактической погоды от прогноза, подсчёт оправдываемости прогнозов по элементам и в целом;
- система обработки, анализа и отображения авиаметеорологической информации для применения провайдерами метеорологической информации.

Рекомендуем: п/э упаковка оптом спб

Погода в Кагуле - сегодня

Время (UTC), дата Ветер
(°,м/с) 
Видим.   Явления Облачность Т
(°С)
Тd
(°С)
f(%) Тe
(°С)
Pmin
(гПа)
dP
(гПа)
Po
(мм)
O2
(г/м3)
Тmin Tmax R s Состояние
почвы
21 19.02.17 110 (В) 4000 м  дымка  10/10 600 м 
[Sc]
+2 +1 93 1025  -0.9  758  303           
00 20.02.17 110 (В) 4000 м  дымка  10/10 600 м 
[Sc]
+1.4 +1.1 98 -1  1025  -0.9  758  304           
03 20.02.17 080 (В) 4000 м  дождь  10/10 200 м 
[Frnb|Ns]
+1.1 +1 99 -1  1021.5  -2.6  755  303           
06 20.02.17 030 (СВ) 4000 м  дождь  10/10 200 м 
[Frnb|Ns]
+1.1 +0.8 98 1020.4  -1.1  754  303  +1       
09 20.02.17 030 (СВ) 4000 м  слаб. дождь  10/10 200 м 
[Frnb|Ns]
+1.4 +1.3 99 -1  1019.2  -1.1  754  302           
12 20.02.17 350 (С) 0200 м  ливневой снег  ?/?  
+0.1 +0.1 100 -2  1018  -1.3  753  303           
15 20.02.17 360 (С) 0200 м  слаб. ливневой снег{туман}  ?/?  
+0 +0 100 -2  1017.2  -0.8  752  303           
18 20.02.17 350 (С) 0200 м  слаб. ливневой снег{туман}  ?/?  
+0 +0 100 -2  1017.5  0.3  752  303    +1.5  13     
21 20.02.17 360 (С) 2000 м  в посл. час туман{ливн. осадки}  10/10 600 м 
[Sc]
+0.3 +0.2 99 -1  1016.8  -0.7  752  303           
00 21.02.17 тихо ()   4000 м  дымка{ливн. осадки, туман}  ясно 
+0 +0 100 1016.3  -0.5  751  303           
03 21.02.17 тихо ()   4000 м  дымка  ясно 
-0.3 -0.4 99 -0  1014.7  -1.6  750  303           
06 21.02.17 тихо ()   0200 м  туман [диам. гололёда 0 мм]  ?/?  
-1 -1 100 -1  1013.7  -1  749  303  -1.2    0.6  равномерный
мокрый или
старый снег
100% 
09 21.02.17 210 (ЮЗ) 0200 м  переохл. туман [диам. гололёда 0 мм]  ?/?  
-0.2 -0.2 100 -3  1012.8  -0.8  749  302           
12 21.02.17 210 (ЮЗ) 4000 м  дымка{туман}  10/0 средняя 
[Ac und]
+4.7 +2.6 86 +3  1010.6  -1.9  747  296           
15 21.02.17 210 (ЮЗ) 4000 м  дымка  10/0 средняя 
[Ac und]
+5.1 +3 86 +4  1009.4  -1.2  746  295           
18 21.02.17 200 (Ю) 10 км    10/10 1000 м 
[Sc]
+4.3 +2.3 87 +3  1009.6  0.2  747  296    +6.1       
21 21.02.17 220 (ЮЗ) 10 км    10/10 600 м 
[Sc]
+3.7 +2.1 89 +2  1009.5  -0.2  746  296           
00 22.02.17 200 (Ю) 4000 м  в посл. час дождь  10/10 600 м 
[Sc]
+3.2 +2.5 95 +3  1009.4  -0.1  746  297           
03 22.02.17 тихо ()   4000 м  слаб. дождь  10/10 300 м 
[Frnb|Ns]
+2.6 +2.3 98 +3  1010.4  747  298           
06 22.02.17 280 (З) 10 км  {дождь}  8/8 1000 м 
[Sc]
+2.8 +1.6 92 +4  1012.6  2.1  749  298  +2.1       
09 22.02.17 320 (СЗ) 20000 м    ясно 
+7.6 +1.4 65 +6  1013.6  1.3  750  294           
12 22.02.17 280 (З) 20000 м    1/1 1000 м 
[Cu hum]
+10.4 +1.5 54 +11  1012.8  -0.7  749  291           
15 22.02.17 220 (ЮЗ) 20000 м    3/0 средняя 
[Ac lent]
+9.6 +3.6 66 +9  1012.1  -0.7  749  291           
18 22.02.17 200 (Ю) 10 км    ясно 
+6.2 +3.9 85 +5  1011.8  -0.5  748  294    +11.2       
21 22.02.17 200 (Ю) 10 км    8/0 средняя 
[As trans]
+5.2 +4 92 +4  1010.5  -1.3  747  295           
Время (UTC), дата Ветер
(°,м/с) 
Видим.   Явления Облачность Т
(°С)
Тd
(°С)
f(%) Тe
(°С)
Pmin
(гПа)
dP
(гПа)
Po
(мм)
O2
(г/м3)
Тmin Tmax R s Состояние
почвы

Для получения пояснительной информации подведите курсор к названию столбца.

ПОГОДА в Кагуле - архив

Всё, что Вы хотите узнать о погоде в Кагуле - удобно и подробно!

Выберите нужную дату (начиная с 1 января 2015* года) и нажмите кнопку "Найти".
Будут отображены архивные сводки погоды по пункту Кагул, начиная с указанной даты.


Отображать данные в формате CSV (для использования в таблицах Excel)


Внимание! Наш архив погоды предназначен исключительно для личного некоммерческого использования в познавательных целях. Если Вам необходимы официальные справки о состоянии погоды (для производственных, юридических, коммерческих и т.п. целей), обращайтесь в органы Росгидромета.

*Примечание: данная дата относится к архиву по метеостанциям СССР (Россия, СНГ, Балтия).
Архив по метеостанциям Зарубежной Европы и Азии (кроме Китая) хранится 10 дней, по другим регионам земного шара (Китай, Африка, Америка, Австралия, Океания) - 1 день.

Кагул - район местоположения метеостанции


Название, широта, долгота, высота метеостанции:
Кагул 45.9°ш. 28.2°д. 39 м над ур. моря [Украина]

Дополнительная информация

В oтличие oт бoльшинства пoгoдных сайтoв мы публикуем пoдрoбную метеoинфoрмацию в детальнoм прoфессиoнальнoм фoрмате.

Характеристики температуры и влажнoсти вoздуха измеряются на высoте 2 м в тени вдали oт зданий и деревьев.
Скoрoсть ветра измеряется на высoте 10 м (на урoвне рoста челoвека скoрoсть ветра ниже в 1.5-2 раза). Если метеoстанция нахoдится в гoрoде или в лесу, тo скoрoсть ветра занижена на 2-4 м/с пo сравнению с oткрытым местoм. Скoрoсть ветра над акватoриями крупных рек и oзёр, а также на вершинах хoлмoв на 2-5 м/с выше, чем в oбычных услoвиях.
Атмoсфернoе давление в разных тoчках местнoсти мoжет значительнo oтличаться oт давления на метеoстанции, в зависимoсти oт услoвий рельефа (при пoдъёме на 10 м давление пoнижается примернo на 1 мм рт.ст.).